Погода в Воробьях

Россия / Калужская область     55°08′42″N   36°48′04″E
темп.,
°C
ветер,
м/с
пор.,
м/с
влажн.,
%
обл.,
%
осадки,
мм/ч
давл.,
гПа
погр.,
м
11 апреля, вс
вс1100:00+2ююз39740 0.0 1026168
03:00+1ююз39800 0.0 1026157
06:00+1ююз26845 0.0 1027101
09:00+7юз24625 0.0 1029288
12:00+12ююз34480 0.0 1029815
15:00+14юз33430 0.0 10291321
18:00+13ююз11540 0.0 103012
21:00+8юв22670 0.0 103211
12 апреля, пн
пн1200:00+6вюв22730 0.0 103310
03:00+5вюв22780 0.0 103428
06:00+4в3782100 0.0 1034114
09:00+9в5115899 0.0 1033550
12:00+12в61044100 0.0 1031884
15:00+13вюв5853100 0.0 10291026
18:00+11вюв4972100 0.0 1028654
21:00+9вюв3988100 0.0 1028286
13 апреля, вт
вт1300:00+7вюв3896100 0.0 1027180
03:00+6вюв259655 0.0 102698
06:00+6юв2593100 0.0 102586
09:00+11ююв3872100 0.0 1025253
12:00+17ююв4755100 0.0 1024657
15:00+18ююв4748100 0.0 1023975
18:00+16ююв265777 0.0 1023153
21:00+11ююв3770100 0.0 1023106
14 апреля, ср
ср1400:00+9юв376997 0.0 102397
03:00+9юв3107497 0.0 1022170
06:00+8ююв368099 0.0 1022113
09:00+13ююв3663100 0.0 1021239
12:00+18ююв4747100 0.0 1020869
15:00+18ююв463925 0.0 10191113
18:00+16юв2649100 0.0 1018155
21:00+11юв2363100 0.0 101946
15 апреля, чт
чт1500:00+10юв2466100 0.0 101957
03:00+9юв2268100 0.0 101816
06:00+8вюв1171100 0.0 101710
09:00+13всв1256100 0.0 1017205
12:00+17св3345100 0.0 1016803
15:00+17св4542100 0.0 10161464
18:00+14ссв61064100 0.0 1015690
21:00+8ссв71480100 0.0 1017564